Weather History for Stanley, ID

Change the Weather History Date:

Monday, December 24, 2012

  Actual Average Record
Temperature  
Mean Temperature 13 °F 14 °F  
Max Temperature 26 °F 25 °F 54 °F (1919)
Min Temperature 0 °F 3 °F -53 °F (1983)
Degree Days  
Heating Degree Days 52 51  
Month to date heating degree days 1058 1206  
Since 1 July heating degree days 3723 4303  
Cooling Degree Days 0 0  
Month to date cooling degree days 0 0  
Year to date cooling degree days 3 3  
Moisture  
Dew Point 14 °F    
Average Humidity 80    
Maximum Humidity 100    
Minimum Humidity 60    
Precipitation  
Precipitation 0.27 in 0.04 in 0.72 in (1964)
Month to date precipitation 3.28 0.97  
Year to date precipitation 23.78 16.76  
Sea Level Pressure  
Sea Level Pressure 29.89 in    
Wind  
Wind Speed 3 mph (WNW)    
Max Wind Speed 14 mph    
Max Gust Speed 21 mph    
T = Trace of Precipitation, MM = Missing Value Source: NWS Daily Summary

Daily Weather History Graph

Daily Weather History Graph

Search for Another Location

Airport:

Trip Planner

Search our weather history database for the weather conditions in past years. The results will help you decide how hot, cold, wet, or windy it might be!

Date:

Astronomy

Dec. 24, 2012 Rise Set
Actual Time 8:13 AM MST 5:05 PM MST
Civil Twilight 7:40 AM MST 5:39 PM MST
Nautical Twilight 7:03 AM MST 6:15 PM MST
Astronomical Twilight 6:28 AM MST 6:51 PM MST
Moon 2:38 PM MST (12/24) 4:52 AM MST (12/24)
Length of Visible Light 9h 58m
Length of Day
8h 52m
Waxing Gibbous, 89% of the Moon is Illuminated
Dec 24
Waxing Gibbous
Dec 28
Full
Jan 4
Last Quarter
Jan 11
New
Jan 18
First Quarter

Hourly Weather History & Observations

Time (MST) Temp. Windchill Dew Point Humidity Pressure Visibility Wind Dir Wind Speed Gust Speed Precip Events Conditions
12:51 AM 25.0 °F 18.1 °F 23.0 °F 92% 29.68 in - SSE 5.8 mph - 0.09 in   Unknown
1:51 AM 25.0 °F - 24.1 °F 96% 29.66 in - Calm Calm - 0.12 in   Unknown
2:51 AM 24.1 °F 19.7 °F 21.9 °F 91% 29.68 in - SE 3.5 mph - 0.02 in   Unknown
3:51 AM 24.1 °F - 21.0 °F 88% 29.68 in - Calm Calm - 0.01 in   Unknown
4:51 AM 21.9 °F 17.2 °F 19.9 °F 92% 29.71 in - North 3.5 mph - 0.01 in   Unknown
5:51 AM 21.9 °F - 19.0 °F 89% 29.72 in - Calm Calm - N/A   Unknown
6:51 AM 15.1 °F 9.4 °F 12.9 °F 91% 29.77 in - SSW 3.5 mph - 0.02 in   Unknown
7:51 AM 18.0 °F 12.7 °F 14.0 °F 84% 29.78 in - WSW 3.5 mph - N/A   Unknown
8:51 AM 18.0 °F - 15.1 °F 88% 29.81 in - Calm Calm - N/A   Unknown
9:51 AM 19.0 °F - 16.0 °F 88% 29.85 in - Calm Calm - N/A   Unknown
10:51 AM 19.9 °F 14.9 °F 12.0 °F 71% 29.87 in - NNW 3.5 mph - N/A   Unknown
11:51 AM 21.0 °F 13.4 °F 12.0 °F 68% 29.87 in - Variable 5.8 mph - N/A   Unknown
12:51 PM 23.0 °F 18.4 °F 12.0 °F 63% 29.87 in - North 3.5 mph - N/A   Unknown
1:51 PM 21.9 °F - 12.9 °F 68% 29.87 in - Calm Calm - N/A   Unknown
2:51 PM 25.0 °F 18.1 °F 12.0 °F 58% 29.87 in - NW 5.8 mph - N/A   Unknown
3:51 PM 21.9 °F 12.5 °F 12.0 °F 66% 29.93 in - NW 8.1 mph - N/A   Unknown
4:51 PM 19.9 °F 14.9 °F 12.9 °F 74% 29.97 in - NNW 3.5 mph - N/A   Unknown
5:51 PM 19.9 °F 13.4 °F 10.9 °F 68% 30.00 in - NW 4.6 mph - N/A   Unknown
6:51 PM 19.0 °F 13.9 °F 12.0 °F 74% 30.07 in - WNW 3.5 mph - N/A   Unknown
7:51 PM 18.0 °F - 12.0 °F 78% 30.09 in - Calm Calm - N/A   Unknown
8:51 PM 16.0 °F - 12.0 °F 84% 30.10 in - Calm Calm - N/A   Unknown
9:51 PM 16.0 °F 8.8 °F 10.9 °F 81% 30.09 in - SSW 4.6 mph - N/A   Unknown
10:51 PM 10.0 °F - 8.1 °F 92% 30.13 in - Calm Calm - N/A   Unknown
11:51 PM 1.9 °F - -0.9 °F 88% 30.17 in - Calm Calm - N/A   Unknown